Regional Weather Roundup
Issued by NWS

Home | Current Version | Previous Version | Graphics & Text | Print | Product List | Glossary On
Versions: 1 2 3 4 5 6 7 8 9 10 11 12 13 14 15 16 17 18 19 20 21 22 23 24 25 26 27 28 29 30 31 32 33 34 35 36 37 38 39 40 41 42 43 44 45 46 47 48 49 50
000
ASUS43 KLOT 021421
RWRIL

ILLINOIS REGIONAL WEATHER ROUNDUP
NATIONAL WEATHER SERVICE CHICAGO/ROMEOVILLE IL
900 AM CDT WED SEP 02 2015

NOTE: "FAIR" INDICATES FEW OR NO CLOUDS BELOW 12,000 FEET WITH NO
SIGNIFICANT WEATHER AND/OR OBSTRUCTIONS TO VISIBILITY.

* THESE STATIONS ARE NOT UNDER NWS QUALITY CONTROL. THEY ALSO MAY NOT
  REPORT WEATHER SUCH AS PRECIPITATION OR FOG.

ILZ001-002-007-009-015-016-024-021500-
NORTHWEST ILLINOIS

CITY           SKY/WX    TMP DP  RH WIND       PRES   REMARKS
MOLINE         PTSUNNY   79  69  71 W7        30.05F HX  81
STERLING*      MOSUNNY  N/A N/A N/A W8        30.04S
SAVANNA*       PTSUNNY   76  69  79 S5        30.04F
$$

ILZ003-004-008-010-011-017-018-021500-
NORTH CENTRAL ILLINOIS

CITY           SKY/WX    TMP DP  RH WIND       PRES   REMARKS
ROCKFORD       MOSUNNY   75  70  84 S5        30.07S
FREEPORT*      MOSUNNY   77  70  80 SW8       30.07S
ROCHELLE*      SUNNY     74  71  89 SW5       30.07F
DE KALB*       SUNNY     77  71  80 SW7       30.08F
PERU*          SUNNY     78  71  78 SW9       30.08F HX  80
$$

ILZ005-006-012>014-019>023-021500-
NORTHEAST ILLINOIS

CITY           SKY/WX    TMP DP  RH WIND       PRES   REMARKS
CHICAGO-OHARE  MOSUNNY   77  69  76 SW5       30.07R
CHICAGO-MIDWAY MOSUNNY   78  69  73 SW7       30.07S HX  80
AURORA         SUNNY     76  71  85 W8        30.08S HAZE
LANSING*       SUNNY     79  71  75 SW6       30.09S HX  82
JOLIET*        SUNNY     79  72  79 W6        30.08S HX  81
WAUKEGAN       SUNNY     76  69  79 SW5       30.05S
DUPAGE AIRPORT SUNNY     75  69  81 SW9       30.07S
KANKAKEE*      SUNNY     78  73  84 CALM      30.10S HX  81
WHEELING       SUNNY     79  68  69 W6        30.07S HX  81
MORRIS*        SUNNY     76  72  86 SW7       30.07S
ROMEOVILLE*    SUNNY     76  70  81 SW7       30.08S
NORTHERLY ISL    N/A     78  68  71 W3          N/A  HX  80
$$

LMZ740>746-021500-
SOUTHERN LAKE MICHIGAN

STATION/POSITION SKY/WX   TEMP    WIND        PRES    VSBY  WAVE
                          AIR SEA DIR/SP/G                  HT/PER
                          (F)     (DEG/KT/KT) (MB)    (MI)  (FT/S)
SOUTHERN BUOY              72 70  220/ 10/ 10 1016.9R         1
WILMETTE HARBOR            69 60  360/  2/  2   N/A           0
HARRISON CRIB              76     220/  8/ 10   N/A
BURNHAM HARBOR             78     190/  4/  8   N/A
CALUMET HARBOR             75     210/  2/  3   N/A
BURNS HARBOR               73     200/  8/  9 1019.0
MICHIGAN CITY              75     200/  8/  9   N/A
MICHIGAN CITY 6N           74 72  230/  6/  8   N/A           1/ 3
ST. JOSEPH                 73 72  260/  8/  8   N/A           1/ 3
$$

ILZ025>027-034>036-040-047-049-050-058-095>099-021500-
WEST-CENTRAL ILLINOIS

CITY           SKY/WX    TMP DP  RH WIND       PRES   REMARKS
QUINCY         MOSUNNY   77  70  79 SW9       30.09S
GALESBURG*     MOSUNNY   76  71  85 S8        30.09S
MACOMB*        MOSUNNY   77  70  79 SW6       30.11R
JACKSONVILLE*  SUNNY     80  72  75 SW9       30.10S HX  84
PITTSFIELD*    SUNNY     79  70  74 SW7       30.11S HX  82
$$

ILZ028>032-037-038-041>044-048-051>054-059>061-021500-
CENTRAL ILLINOIS

CITY           SKY/WX    TMP DP  RH WIND       PRES   REMARKS
PONTIAC        SUNNY     78  73  85 SW8       30.10F HX  81
BLOOMINGTON    SUNNY     78  73  84 SW8       30.12F HX  80
DECATUR        SUNNY     79  70  74 SW6       30.12S HX  82
PEORIA         MOSUNNY   79  71  76 SW8       30.09S HX  82
LACON*         SUNNY     77  70  80 SW8       30.07F
LINCOLN*       MOSUNNY   80  71  74 SW3       30.09F HX  83
SPRINGFIELD    MOSUNNY   79  70  74 SW6       30.10S HX  82
TAYLORVILLE    SUNNY     77  70  78 SW5       30.11S
$$

ILZ033-039-045-046-055>057-062-063-021500-
EAST-CENTRAL ILLINOIS

CITY           SKY/WX    TMP DP  RH WIND       PRES   REMARKS
CHAMPAIGN      SUNNY     77  71  82 SW6       30.13R
RANTOUL*       SUNNY     80  73  80 W6        30.12R HX  84
MATTOON        SUNNY     78  69  73 SW7       30.12F HX  80
PARIS*         SUNNY     78  72  81 W6        30.13F HX  81
$$

ILZ079-100>102-021500-
SOUTHWEST ILLINOIS

CITY           SKY/WX    TMP DP  RH WIND       PRES   REMARKS
BELLEVILLE     SUNNY     77  75  93 VRB2      30.10S
CAHOKIA*       SUNNY     79  70  74 S3        30.10F HX  82
SPARTA*        SUNNY     78  71  80 CALM      30.13F HX  80
$$

ILZ064>066-069>071-074>076-080>082-084>086-088>090-092>094-021500-
SOUTH-CENTRAL ILLINOIS

CITY           SKY/WX    TMP DP  RH WIND       PRES   REMARKS
CARBONDALE     SUNNY     76  70  82 CALM      30.14S
CAIRO*         SUNNY     76  75  96 CALM      30.13S
EFFINGHAM*     SUNNY     76  69  78 CALM      30.14F
MARION         SUNNY     79  72  78 W3        30.15R HX  82
MT. VERNON     SUNNY     79  68  69 S6        30.14F HX  81
CENTRALIA*     SUNNY     79  73  81 CALM      30.12S HX  82
SALEM*         SUNNY     81  70  70 CALM      30.13S HX  84
METROPOLIS*    SUNNY     78  75  91 CALM      30.14S HX  80
$$

ILZ067-068-072-073-078-083-087-091-021500-
SOUTHEAST ILLINOIS

CITY           SKY/WX    TMP DP  RH WIND       PRES   REMARKS
LAWRENCEVILLE  SUNNY     77  70  79 SW5       30.14F
FLORA*         SUNNY     79  70  74 SW3       30.13F HX  82
FAIRFIELD*     SUNNY     78  71  78 CALM      30.13S HX  80
HARRISBURG*    SUNNY     78  71  80 CALM      30.14S HX  80
ROBINSON*      SUNNY     79  70  74 W5        30.14F HX  82
CARMI*         SUNNY     75  72  88 CALM      30.14S
$$

ABBREVIATIONS USED IN REMARKS
   TC - TEMPERATURE IN CELSIUS
  WCI - WIND CHILL INDEX
   HX - HEAT INDEX
  VSB - VISIBILITY
$$



USA.gov is the U.S. government's official web portal to all federal, state and local government web resources and services.